AUA7381 EHAM-LZIB

Flight info

Callsign AUA7381
Flight time N/A
Altitude 37000
Route EDUPO Z739 MISGO DCT GMH DCT PILAM DCT OKG DCT ODNEM/N0364F130 A4 BERVA
Aircraft A320/M-SDE3FGHIRWY/LB1

Departure

Time 2026-04-30 19:52
Airport Amsterdam Airport Schiphol (EHAM)

Arrival

Time N/A
Airport M. R. Štefánik Airport (LZIB)
Time Latitude Longitude Altitude Speed Heading
2026-04-30 19:17 52.30694 4.77214 -2 ft 0 kts
2026-04-30 19:33 52.30683 4.77213 -2 ft 2 kts 11°
2026-04-30 19:33 52.30666 4.77209 -2 ft 2 kts
2026-04-30 19:34 52.30651 4.77199 -3 ft 2 kts 74°
2026-04-30 19:34 52.30650 4.77192 -2 ft 0 kts 89°
2026-04-30 19:36 52.30650 4.77193 -3 ft 0 kts 90°
2026-04-30 19:36 52.30650 4.77196 -3 ft 0 kts 90°
2026-04-30 19:37 52.30649 4.77197 -2 ft 0 kts 91°
2026-04-30 19:38 52.30649 4.77206 -3 ft 1 kts 94°
2026-04-30 19:38 52.30648 4.77220 -3 ft 0 kts 98°
2026-04-30 19:39 52.30640 4.77290 -3 ft 15 kts 97°
2026-04-30 19:40 52.30640 4.77475 -2 ft 15 kts 102°
2026-04-30 19:40 52.30708 4.77593 -2 ft 18 kts 12°
2026-04-30 19:40 52.30865 4.77607 -3 ft 28 kts
2026-04-30 19:40 52.31066 4.77624 -2 ft 29 kts
2026-04-30 19:41 52.31265 4.77641 -2 ft 25 kts
2026-04-30 19:41 52.31441 4.77643 -2 ft 26 kts 342°
2026-04-30 19:41 52.31563 4.77439 -3 ft 23 kts 301°
2026-04-30 19:41 52.31573 4.77211 -3 ft 19 kts 267°
2026-04-30 19:42 52.31569 4.77053 -3 ft 11 kts 259°
2026-04-30 19:42 52.31562 4.76859 -3 ft 26 kts 268°
2026-04-30 19:42 52.31553 4.76476 -2 ft 40 kts 263°
2026-04-30 19:42 52.31541 4.76204 -2 ft 17 kts 269°
2026-04-30 19:43 52.31534 4.76023 -2 ft 15 kts 267°
2026-04-30 19:43 52.31528 4.75857 -2 ft 14 kts 267°
2026-04-30 19:43 52.31524 4.75704 -3 ft 13 kts 267°
2026-04-30 19:44 52.31513 4.75438 -3 ft 11 kts 266°
2026-04-30 19:44 52.31509 4.75323 -3 ft 10 kts 266°
2026-04-30 19:44 52.31505 4.75208 -3 ft 10 kts 268°
2026-04-30 19:44 52.31501 4.75108 -3 ft 8 kts 266°
2026-04-30 19:45 52.31497 4.75020 -3 ft 7 kts 266°
2026-04-30 19:45 52.31494 4.74947 -3 ft 6 kts 266°
2026-04-30 19:45 52.31493 4.74887 -2 ft 5 kts 269°
2026-04-30 19:45 52.31492 4.74832 -2 ft 5 kts 269°
2026-04-30 19:46 52.31492 4.74787 -2 ft 3 kts 269°
2026-04-30 19:46 52.31491 4.74756 -2 ft 2 kts 269°
2026-04-30 19:46 52.31499 4.74708 -2 ft 7 kts 295°
2026-04-30 19:46 52.31550 4.74664 -2 ft 10 kts 354°
2026-04-30 19:47 52.31565 4.74662 -2 ft 0 kts 357°
2026-04-30 19:48 52.31610 4.74663 0 ft 14 kts
2026-04-30 19:48 52.31667 4.74782 -1 ft 16 kts 82°
2026-04-30 19:48 52.31670 4.74847 -3 ft 0 kts 89°
2026-04-30 19:51 52.31671 4.74897 -4 ft 23 kts 87°
2026-04-30 19:52 52.31694 4.75578 -5 ft 93 kts 86°
2026-04-30 19:52 52.31738 4.76950 -3 ft 147 kts 87°
2026-04-30 19:52 52.31805 4.78697 465 ft 153 kts 89°
2026-04-30 19:52 52.31871 4.80432 1206 ft 153 kts 92°
2026-04-30 19:53 52.31930 4.82167 1975 ft 157 kts 93°
2026-04-30 19:53 52.31985 4.84080 2361 ft 181 kts 93°
2026-04-30 19:53 52.32003 4.86263 2757 ft 202 kts 101°
2026-04-30 19:53 52.31573 4.88556 3192 ft 223 kts 116°
2026-04-30 19:54 52.30932 4.90970 3856 ft 237 kts 116°
2026-04-30 19:54 52.30267 4.93483 4742 ft 242 kts 115°